Home > Weather > Hefei > Past weeks

Flag for China Weather for the Past 2 Weeks in Hefei, Anhui, China

Now
52 °F

Sunny.


Feels Like: 48 °F
Forecast: 51 / 69 °F
Wind: 10 mph from South

Location: Hefei Airport

Current Time: Feb 10, 2016 at 7:39:51 AM

Latest Report: Feb 10, 2016 at 7:00 AM


Visibility: 10 mi

Pressure: 29.98 "Hg

Humidity: 54%

Dew point: 36 °F

Location of HefeiLocation

Historic Weather in Hefei — Graph

°F

Hefei Temperature Yesterday

Maximum temperature yesterday: 68 °F (at 2:00 PM)
Minimum temperature yesterday: 37 °F (at 2:00 AM)
Average temperature yesterday: 52 °F

High & Low Weather Summary for the Past Weeks

 TemperatureHumidityPressure
High68 °F (Feb 8, 2:00 PM)100% (Jan 28, 9:00 AM)30.69 "Hg (Jan 28, 9:00 AM)
Low21 °F (Jan 26, 6:00 AM)20% (Feb 8, 2:00 PM)29.98 "Hg (Feb 10, 3:00 AM)
Average38 °F65%30.36 "Hg
* Reported Jan 26 6:00 AM — Feb 10 6:00 AM, Hefei, Weather by CustomWeather, © 2016

Note: Actual official high and low records may vary slightly from our data, if they occured in-between our weather recording intervals... More about our weather records

Advertising

Hefei Weather History for the Previous 24 Hours

 ConditionsComfort  
Time TempWeatherWind HumidityBarometerVisibility
6:00 AM
Wed, Feb 10
46 °FClear.6 mph66%29.98 "Hg10 mi
5:00 AM48 °FClear.6 mph58%29.98 "Hg10 mi
4:00 AM54 °FClear.8 mph47%29.98 "Hg10 mi
3:00 AM54 °FClear.6 mph47%29.98 "Hg10 mi
2:00 AM54 °FClear.8 mph47%30.01 "Hg10 mi
1:00 AM55 °FClear.8 mph44%30.01 "Hg10 mi
12:00 AM52 °FClear.6 mph50%30.01 "Hg10 mi
11:00 PM
Tue, Feb 9
55 °FClear.10 mph44%30.04 "Hg10 mi
10:00 PM52 °FClear.6 mph47%30.04 "Hg10 mi
9:00 PM55 °FClear.10 mph41%30.04 "Hg10 mi
8:00 PM57 °FClear.8 mph41%30.04 "Hg10 mi
7:00 PM59 °FClear.10 mph36%30.04 "Hg10 mi
6:00 PM61 °FClear.8 mph39%30.04 "Hg10 mi
5:00 PM64 °FSunny.6 mph37%30.04 "Hg10 mi
4:00 PM68 °FSunny.6 mph26%30.04 "Hg10 mi
3:00 PM68 °FPassing clouds.8 mph28%30.04 "HgN/A
2:00 PM68 °FPassing clouds.6 mph28%30.07 "HgN/A
1:00 PM66 °FClear.6 mph32%30.09 "Hg5 mi
12:00 PM63 °FClear.8 mph37%30.12 "Hg4 mi
11:00 AM59 °FClear.6 mph45%30.15 "Hg4 mi
10:00 AM52 °FClear.6 mph58%30.15 "Hg4 mi
9:00 AM45 °FFog.3 mph76%30.15 "Hg3 mi
8:00 AM41 °FFog.3 mph76%30.12 "Hg2 mi
7:00 AM37 °FFog.6 mph81%30.09 "Hg2 mi
Weather by CustomWeather, © 2016

See weather overviewHow to use our weather pages